T77NM Weather Reports


time (UTC)temp
F
wind
direction
speed
knots
gust
knots
rain 1hr
in
rain 24hr
in
rain mn
in
humidity
%
barometer
mb
20260507083034 63 254 5.2 9.6 0.00 0.00 0.00 49 1013.2
20260507081531 63 204 4.3 8.7 0.00 0.00 0.00 54 1013.0
20260507080030 62 39 1.7 9.6 0.00 0.00 0.00 57 1012.9
20260507074530 63 222 5.2 9.6 0.00 0.00 0.00 56 1012.8
20260507073029 63 223 0.0 5.2 0.00 0.00 0.00 58 1012.8
20260507071523 61 215 0.0 7.8 0.00 0.00 0.00 61 1012.8
20260507070019 60 236 1.7 6.1 0.00 0.00 0.00 63 1013.1
20260507064516 59 263 1.7 5.2 0.00 0.00 0.00 66 1013.1
20260507063025 59 194 1.7 5.2 0.00 0.00 0.00 67 1012.9
20260507061512 58 190 1.7 6.1 0.00 0.00 0.00 68 1013.0
20260507060024 57 185 3.5 7.8 0.00 0.00 0.00 69 1012.8
20260507054508 57 242 3.5 8.7 0.00 0.00 0.00 72 1012.7
20260507053006 56 241 4.3 7.0 0.00 0.00 0.00 75 1012.5
20260507051604 56 215 1.7 4.3 0.00 0.00 0.00 75 1012.4
20260507050101 57 240 1.7 6.1 0.00 0.00 0.00 73 1012.3
20260507044555 58 198 3.5 7.0 0.00 0.01 0.00 71 1012.1
20260507043052 58 238 4.3 9.6 0.00 0.01 0.00 70 1011.7
20260507041549 58 248 0.9 4.3 0.00 0.01 0.00 70 1011.5
20260507040048 58 196 0.0 6.1 0.00 0.01 0.00 71 1011.7
20260507034548 58 141 3.5 6.1 0.00 0.01 0.00 72 1011.5
20260507033048 58 181 2.6 9.6 0.00 0.01 0.00 72 1011.6
20260507031547 58 177 3.5 7.0 0.00 0.01 0.00 73 1011.6
20260507030045 58 246 6.1 9.6 0.00 0.01 0.00 72 1011.7
20260507024543 58 284 5.2 12.2 0.00 0.01 0.00 72 1011.4
20260507023041 58 161 1.7 8.7 0.00 0.01 0.00 75 1011.4
20260507021539 58 259 0.9 6.1 0.00 0.01 0.00 75 1011.4
20260507020043 59 254 2.6 6.1 0.00 0.01 0.00 74 1011.3
20260507014548 59 197 0.9 3.5 0.00 0.01 0.00 75 1011.4
20260507013136 59 276 4.3 9.6 0.00 0.01 0.00 75 1011.4
20260507011536 59 213 0.9 10.4 0.00 0.01 0.00 76 1011.4
20260507010045 59 183 0.9 6.1 0.00 0.01 0.00 77 1011.3
20260507004534 59 311 1.7 8.7 0.00 0.01 0.00 74 1011.5
20260507003031 59 217 6.1 12.2 0.00 0.01 0.00 74 1011.5
20260507001533 59 244 0.9 3.5 0.00 0.01 0.00 74 1011.4
20260507000027 59 292 5.2 9.6 0.00 0.01 0.00 73 1011.5
20260506234530 59 92 1.7 7.0 0.00 0.01 0.00 74 1011.5
20260506233022 59 345 0.9 7.0 0.00 0.01 0.00 74 1011.4
20260506231518 59 298 0.9 5.2 0.00 0.01 0.00 74 1011.5
20260506230014 59 276 4.3 8.7 0.00 0.01 0.00 73 1011.7
20260506224513 59 194 0.0 3.5 0.00 0.01 0.00 75 1011.9
20260506223012 59 193 0.0 4.3 0.00 0.01 0.00 75 1011.8
20260506221511 59 159 0.9 2.6 0.00 0.01 0.00 77 1012.0
20260506220017 59 159 0.0 1.7 0.00 0.01 0.00 76 1011.8
20260506214510 59 159 0.0 1.7 0.00 0.03 0.01 75 1011.8
20260506213007 59 93 0.9 3.5 0.00 0.03 0.01 74 1011.9
20260506211511 60 131 0.9 5.2 0.00 0.03 0.01 74 1011.8
20260506210012 60 42 0.0 2.6 0.00 0.03 0.01 73 1011.9
20260506204507 60 192 0.9 5.2 0.00 0.18 0.01 73 1011.8
20260506203006 60 343 1.7 5.2 0.00 0.18 0.01 74 1011.6
20260506201508 60 15 1.7 4.3 0.00 0.18 0.01 75 1011.5
20260506200010 60 315 2.6 5.2 0.00 0.18 0.01 74 1011.4
20260506194505 60 338 0.0 4.3 0.00 0.28 0.01 75 1011.3
20260506193004 60 349 3.5 6.1 0.00 0.28 0.01 75 1011.2
20260506191504 61 360 0.9 5.2 0.00 0.28 0.01 74 1010.8
20260506190004 61 122 0.9 4.3 0.00 0.28 0.01 74 1010.6
20260506184505 61 17 1.7 6.1 0.00 0.46 0.01 73 1010.4
20260506183005 61 44 0.9 7.0 0.00 0.46 0.01 73 1010.1
20260506181504 62 110 2.6 10.4 0.00 0.46 0.01 72 1009.8
20260506180005 62 188 2.6 8.7 0.00 0.46 0.01 70 1009.8
20260506174502 62 167 3.5 9.6 0.00 0.68 0.01 70 1009.9
20260506173001 63 286 2.6 7.8 0.00 0.68 0.01 70 1009.8
20260506171610 63 265 1.7 13.9 0.00 0.68 0.01 69 1009.6
20260506170112 63 142 4.3 12.2 0.00 0.68 0.01 69 1009.5
20260506164623 64 149 1.7 7.8 0.00 0.76 0.01 67 1009.5
20260506163107 64 84 3.5 8.7 0.00 0.76 0.01 67 1009.7
20260506161600 65 158 2.6 6.1 0.00 0.76 0.01 65 1009.7
20260506160111 67 171 2.6 7.8 0.00 0.76 0.01 62 1009.7
20260506154558 67 186 2.6 7.8 0.00 0.76 0.01 62 1009.8
20260506153101 68 113 2.6 7.8 0.00 0.76 0.01 60 1009.7
20260506151558 67 8 1.7 3.5 0.00 0.76 0.01 60 1009.8
20260506150057 66 190 3.5 9.6 0.00 0.76 0.01 60 1009.6
20260506144556 66 113 1.7 5.2 0.00 0.76 0.01 62 1009.4
20260506143055 66 74 1.7 8.7 0.00 0.76 0.01 63 1009.6
20260506141609 67 77 0.9 10.4 0.00 0.76 0.01 62 1009.8
20260506140052 67 319 2.6 10.4 0.00 0.76 0.01 60 1009.9
20260506134551 66 96 1.7 5.2 0.00 0.76 0.01 63 1010.2
20260506133057 67 359 0.9 7.8 0.00 0.76 0.01 60 1010.4
20260506131554 67 196 3.5 7.0 0.00 0.76 0.01 60 1010.4
20260506130049 67 320 2.6 9.6 0.00 0.76 0.01 59 1010.6
20260506124546 66 155 2.6 10.4 0.00 0.76 0.01 60 1010.6
20260506123046 65 14 1.7 9.6 0.00 0.76 0.01 62 1010.8
20260506121553 65 238 0.9 5.2 0.00 0.76 0.01 61 1010.8
20260506120107 65 298 1.7 8.7 0.00 0.76 0.01 63 1010.8
20260506114545 65 236 3.5 8.7 0.00 0.76 0.01 64 1010.6
20260506113041 65 164 2.6 7.0 0.00 0.76 0.01 66 1010.7
20260506111540 65 328 2.6 7.8 0.00 0.76 0.01 66 1010.9
20260506110035 64 243 1.7 7.8 0.00 0.76 0.01 68 1011.1
20260506104533 63 277 1.7 8.7 0.00 0.76 0.01 71 1011.1
20260506103033 62 241 2.6 10.4 0.00 0.76 0.01 72 1011.0
20260506101529 62 44 2.6 8.7 0.00 0.76 0.01 72 1011.0
20260506100030 62 180 2.6 7.0 0.00 0.76 0.01 72 1011.0
20260506094533 62 226 1.7 7.8 0.00 0.76 0.01 73 1010.9
20260506093041 61 109 3.5 7.8 0.00 0.76 0.01 73 1011.0
20260506091525 61 309 4.3 11.3 0.00 0.76 0.01 74 1011.0
20260506090023 61 156 5.2 12.2 0.00 0.76 0.01 73 1010.8
20260506084523 61 274 1.7 9.6 0.00 0.76 0.01 74 1010.7